Location: Unnamed
(48.6007°N, 2.4808°E)
Time: 09:50:15
(UTC+02:00)

CUTE 1.7 + AOD 2 - Pass Details

Date: 07 April 2023
Orbit: 582 x 600 km, 97.7° (Epoch: 29 May)

Event Time Altitude Azimuth Distance (km) Brightness Sun altitude
Rises 05:09:02 0° 18° (NNE) 2,859 ? -20.0°
Reaches altitude 10° 05:11:17 10° 24° (NNE) 1,953 ? -19.7°
Maximum altitude 05:15:23 47° 99° (E) 808 ? -19.1°
Enters shadow 05:18:46 14° 170° (S) 1,674 ? -18.7°
